This is the latest recevied weather packets stored in our database for station/object KB4RFE. If no packets are shown the sender has not sent any weather packets the latest 10 day(s).
| Time | Temp. | Humidity | Pressure | Rain* | Wind** | Luminosity | Snow |
|---|---|---|---|---|---|---|---|
| 1788612951 | 27.22° C | 96% | 1017 hPa | 0 mm | - | 68 W/m² | - |
| 1788612647 | 26.67° C | 97% | 1017 hPa | 0 mm | - | 50 W/m² | - |
| 1788612343 | 26.67° C | 97% | 1016.9 hPa | 0 mm | - | 42 W/m² | - |
| 1788612039 | 26.67° C | 98% | 1017.1 hPa | 0 mm | - | 41 W/m² | - |
| 1788611734 | 26.67° C | 98% | 1017 hPa | 0 mm | - | 42 W/m² | - |
| 1788611431 | 26.11° C | 98% | 1016.9 hPa | 0 mm | - | 38 W/m² | - |
| 1788611130 | 26.11° C | 98% | 1016.6 hPa | 0 mm | - | 37 W/m² | - |
| 1788610825 | 26.11° C | 98% | 1016.8 hPa | 0 mm | - | 35 W/m² | - |
| 1788610520 | 26.11° C | 98% | 1016.9 hPa | 0 mm | - | 34 W/m² | - |
| 1788610216 | 26.11° C | 98% | 1016.8 hPa | 0 mm | - | 34 W/m² | - |
| 1788609914 | 25.56° C | 98% | 1016.8 hPa | 0 mm | - | 38 W/m² | - |
| 1788609610 | 25.56° C | 98% | 1016.8 hPa | 0 mm | - | 31 W/m² | - |
| 1788609334 | 25.56° C | 98% | 1016.9 hPa | 0 mm | - | 30 W/m² | - |
| 1788609004 | 25.56° C | 98% | 1016.6 hPa | 0 mm | - | 28 W/m² | - |
| 1788608703 | 25.56° C | 98% | 1016.7 hPa | 0 mm | - | 26 W/m² | - |
| 1788608402 | 25.56° C | 98% | 1016.8 hPa | 0 mm | - | 24 W/m² | - |
| 1788608098 | 25.56° C | 98% | 1016.5 hPa | 0 mm | - | 22 W/m² | - |
| 1788607793 | 25° C | 98% | 1016.6 hPa | 0 mm | - | 20 W/m² | - |
| 1788607488 | 25° C | 98% | 1016.6 hPa | 0 mm | - | 17 W/m² | - |
| 1788607183 | 25° C | 98% | 1016.4 hPa | 0 mm | - | 14 W/m² | - |
| 1788606884 | 25° C | 98% | 1016.4 hPa | 0 mm | - | 11 W/m² | - |
| 1788606583 | 25° C | 98% | 1016.4 hPa | 0 mm | - | 9 W/m² | - |
| 1788606282 | 25° C | 98% | 1016.4 hPa | 0 mm | - | 6 W/m² | - |
| 1788605977 | 25° C | 98% | 1016.4 hPa | 0 mm | - | 4 W/m² | - |
| 1788605672 | 25° C | 98% | 1016.5 hPa | 0 mm | - | 2 W/m² | - |
* Rain latest hour (hover to see other rain measurements)
** Current wind speed in m/s (hover to see current wind gust speed)